TimePDT,TemperatureF,Dew PointF,Humidity,Sea Level PressureIn,VisibilityMPH,Wind Direction,Wind SpeedMPH,Gust SpeedMPH,PrecipitationIn,Events,Conditions,WindDirDegrees,DateUTC
12:14 AM,51.8,48.2,88,29.93,7.0,WNW,4.6,-,N/A,,Overcast,290,2013-06-22 07:14:00
12:55 AM,51.1,48.9,92,29.89,5.0,NNW,4.6,-,N/A,,Overcast,330,2013-06-22 07:55:00
1:40 AM,50.0,48.2,94,29.91,1.5,Calm,Calm,-,N/A,,Overcast,0,2013-06-22 08:40:00
1:44 AM,48.2,48.2,100,29.91,1.0,Calm,Calm,-,N/A,,Overcast,0,2013-06-22 08:44:00
1:52 AM,50.0,48.2,94,29.91,0.5,Calm,Calm,-,N/A,Fog,Fog,0,2013-06-22 08:52:00
1:55 AM,50.0,48.9,96,29.89,0.5,Calm,Calm,-,N/A,Fog,Fog,0,2013-06-22 08:55:00
2:02 AM,50.0,48.2,94,29.91,0.8,Calm,Calm,-,N/A,,Mist,0,2013-06-22 09:02:00
2:10 AM,51.8,48.2,88,29.91,1.2,Calm,Calm,-,N/A,,Overcast,0,2013-06-22 09:10:00
2:31 AM,50.0,48.2,94,29.91,1.0,Calm,Calm,-,N/A,,Mist,0,2013-06-22 09:31:00
2:44 AM,48.2,48.2,100,29.91,0.8,Calm,Calm,-,N/A,,Mist,0,2013-06-22 09:44:00
2:49 AM,50.0,48.2,94,29.91,1.2,Calm,Calm,-,N/A,,Overcast,0,2013-06-22 09:49:00
2:51 AM,50.0,48.2,94,29.91,1.8,Calm,Calm,-,N/A,,Overcast,0,2013-06-22 09:51:00
2:53 AM,50.0,48.2,94,29.91,3.0,Calm,Calm,-,N/A,,Overcast,0,2013-06-22 09:53:00
2:55 AM,50.0,48.0,93,29.88,3.0,Calm,Calm,-,N/A,,Overcast,0,2013-06-22 09:55:00
3:38 AM,46.4,46.4,100,29.90,2.0,Calm,Calm,-,N/A,,Overcast,0,2013-06-22 10:38:00
3:46 AM,46.4,46.4,100,29.91,1.5,Calm,Calm,-,N/A,,Overcast,0,2013-06-22 10:46:00
3:51 AM,46.4,46.4,100,29.90,1.0,Calm,Calm,-,N/A,,Overcast,0,2013-06-22 10:51:00
3:55 AM,46.9,46.0,97,29.88,1.2,Calm,Calm,-,N/A,,Overcast,0,2013-06-22 10:55:00
4:00 AM,48.2,46.4,93,29.91,1.8,Calm,Calm,-,N/A,,Overcast,0,2013-06-22 11:00:00
4:05 AM,50.0,48.2,94,29.90,1.2,Calm,Calm,-,N/A,,Overcast,0,2013-06-22 11:05:00
4:14 AM,50.0,48.2,94,29.91,1.0,Calm,Calm,-,N/A,,Mist,0,2013-06-22 11:14:00
4:20 AM,50.0,48.2,94,29.91,1.5,NNE,3.5,-,N/A,,Overcast,30,2013-06-22 11:20:00
4:28 AM,50.0,48.2,94,29.91,1.0,Calm,Calm,-,N/A,,Mist,0,2013-06-22 11:28:00
4:38 AM,50.0,48.2,94,29.91,0.8,NNW,3.5,-,N/A,,Mist,340,2013-06-22 11:38:00
4:55 AM,50.0,48.9,96,29.88,0.8,Calm,Calm,-,N/A,,Mist,0,2013-06-22 11:55:00
5:29 AM,50.0,48.2,94,29.92,1.2,West,3.5,-,N/A,,Overcast,270,2013-06-22 12:29:00
5:36 AM,50.0,48.2,94,29.92,1.8,Calm,Calm,-,N/A,,Overcast,0,2013-06-22 12:36:00
5:41 AM,50.0,48.2,94,29.92,2.5,West,4.6,-,N/A,,Overcast,260,2013-06-22 12:41:00
5:55 AM,50.0,50.0,100,29.90,2.5,WSW,3.5,-,N/A,,Overcast,250,2013-06-22 12:55:00
6:04 AM,50.0,48.2,94,29.92,1.8,Calm,Calm,-,N/A,,Overcast,0,2013-06-22 13:04:00
6:09 AM,50.0,50.0,100,29.92,1.2,Calm,Calm,-,N/A,,Overcast,0,2013-06-22 13:09:00
6:16 AM,50.0,48.2,94,29.92,0.8,Calm,Calm,-,N/A,,Overcast,0,2013-06-22 13:16:00
6:40 AM,50.0,48.2,94,29.92,0.5,Calm,Calm,-,N/A,Fog,Fog,0,2013-06-22 13:40:00
6:55 AM,50.0,48.9,96,29.91,0.5,SE,3.5,-,N/A,Fog,Fog,140,2013-06-22 13:55:00
7:00 AM,51.8,48.2,88,29.93,1.0,Calm,Calm,-,N/A,,Mist,0,2013-06-22 14:00:00
7:20 AM,51.8,50.0,94,29.93,1.5,Calm,Calm,-,N/A,,Overcast,0,2013-06-22 14:20:00
7:24 AM,51.8,50.0,94,29.93,2.0,Calm,Calm,-,N/A,,Overcast,0,2013-06-22 14:24:00
7:40 AM,51.8,50.0,94,29.93,3.0,East,3.5,-,N/A,,Overcast,90,2013-06-22 14:40:00
7:55 AM,51.1,50.0,96,29.91,6.0,Calm,Calm,-,N/A,,Overcast,0,2013-06-22 14:55:00
8:51 AM,55.4,50.0,82,29.94,10.0,Calm,Calm,-,N/A,,Mostly Cloudy,0,2013-06-22 15:51:00
8:55 AM,55.9,50.0,80,29.92,10.0,Calm,Calm,-,N/A,,Mostly Cloudy,0,2013-06-22 15:55:00
9:06 AM,57.2,50.0,77,29.95,10.0,Calm,Calm,-,N/A,,Scattered Clouds,0,2013-06-22 16:06:00
9:55 AM,59.0,50.0,72,29.92,10.0,WSW,8.1,-,N/A,,Clear,250,2013-06-22 16:55:00
10:55 AM,57.9,50.0,75,29.92,10.0,West,10.4,-,N/A,,Clear,260,2013-06-22 17:55:00
11:55 AM,59.0,48.9,69,29.93,10.0,West,9.2,-,N/A,,Clear,280,2013-06-22 18:55:00
12:55 PM,61.0,50.0,67,29.92,10.0,West,12.7,18.4,N/A,,Clear,280,2013-06-22 19:55:00
1:55 PM,63.0,50.0,63,29.91,10.0,NW,10.4,-,N/A,,Clear,310,2013-06-22 20:55:00
2:55 PM,62.1,50.0,65,29.90,10.0,NW,12.7,-,N/A,,Clear,320,2013-06-22 21:55:00
3:55 PM,61.0,50.0,67,29.89,10.0,NW,11.5,19.6,N/A,,Clear,320,2013-06-22 22:55:00
4:55 PM,61.0,50.0,67,29.87,10.0,NW,12.7,-,N/A,,Clear,320,2013-06-22 23:55:00
5:55 PM,60.1,50.0,69,29.86,10.0,NW,11.5,-,N/A,,Clear,320,2013-06-23 00:55:00
6:55 PM,57.9,50.0,75,29.85,10.0,NW,12.7,-,N/A,,Clear,320,2013-06-23 01:55:00
7:55 PM,55.0,50.0,83,29.86,10.0,NNW,9.2,-,N/A,,Clear,330,2013-06-23 02:55:00
8:55 PM,54.0,48.9,83,29.86,10.0,NW,4.6,-,N/A,,Clear,320,2013-06-23 03:55:00
9:55 PM,52.0,48.0,86,29.88,10.0,Calm,Calm,-,N/A,,Clear,0,2013-06-23 04:55:00
10:47 PM,51.8,48.2,88,29.91,10.0,Variable,3.5,-,N/A,,Scattered Clouds,0,2013-06-23 05:47:00
10:55 PM,53.1,50.0,89,29.89,10.0,WNW,6.9,-,N/A,,Mostly Cloudy,300,2013-06-23 05:55:00
11:16 PM,53.6,51.8,94,29.91,10.0,NW,10.4,-,N/A,,Overcast,310,2013-06-23 06:16:00
11:55 PM,54.0,51.1,90,29.88,9.0,WNW,9.2,-,N/A,,Overcast,300,2013-06-23 06:55:00